| time (UTC) | temp F | wind direction | speed MPH | gust MPH | rain 1hr in | rain 24hr in | rain mn in | humidity % | barometer mb |
| 20260506004504 | 29 | 168 | 1.0 | 2.0 | 0.00 | 0.00 | 0.00 | 11 | 992.8 |
| 20260506003746 | 29 | 180 | 0.0 | 1.0 | 0.00 | 0.00 | 0.00 | 11 | 992.7 |
| 20260506003603 | 29 | 180 | 0.0 | 1.0 | 0.00 | 0.00 | 0.00 | 11 | 992.8 |
| 20260506003245 | 29 | 180 | 0.0 | 1.0 | 0.00 | 0.00 | 0.00 | 11 | 992.8 |
| 20260506002722 | 29 | 200 | 0.0 | 3.0 | 0.00 | 0.00 | 0.00 | 11 | 992.8 |
| 20260506002704 | 29 | 200 | 0.0 | 3.0 | 0.00 | 0.00 | 0.00 | 11 | 992.8 |
| 20260506001803 | 29 | 211 | 1.0 | 4.0 | 0.00 | 0.00 | 0.00 | 11 | 992.9 |
| 20260506001247 | 29 | 211 | 0.0 | 3.0 | 0.00 | 0.00 | 0.00 | 11 | 992.8 |
| 20260506000903 | 29 | 217 | 0.0 | 3.0 | 0.00 | 0.00 | 0.00 | 11 | 992.7 |
| 20260506000722 | 28 | 225 | 1.0 | 2.0 | 0.00 | 0.00 | 0.00 | 11 | 992.7 |
| 20260506000247 | 28 | 210 | 1.0 | 2.0 | 0.00 | 0.00 | 0.00 | 11 | 992.8 |
| 20260506000003 | 28 | 202 | 1.0 | 3.0 | 0.00 | 0.00 | 0.00 | 11 | 992.7 |
| 20260505235403 | 28 | 189 | 1.0 | 3.0 | 0.00 | 0.00 | 0.00 | 11 | 992.7 |
| 20260505235247 | 28 | 198 | 0.0 | 3.0 | 0.00 | 0.00 | 0.00 | 11 | 992.7 |
| 20260505234724 | 28 | 216 | 0.0 | 2.0 | 0.00 | 0.00 | 0.00 | 11 | 992.8 |
| 20260505234503 | 28 | 223 | 0.0 | 2.0 | 0.00 | 0.00 | 0.00 | 11 | 992.8 |
| 20260505234245 | 28 | 225 | 1.0 | 2.0 | 0.00 | 0.00 | 0.00 | 11 | 992.8 |
| 20260505233603 | 28 | 238 | 0.0 | 3.0 | 0.00 | 0.00 | 0.00 | 11 | 992.9 |
| 20260505232721 | 29 | 224 | 1.0 | 4.0 | 0.00 | 0.00 | 0.00 | 11 | 992.9 |
| 20260505232703 | 29 | 224 | 1.0 | 4.0 | 0.00 | 0.00 | 0.00 | 11 | 992.9 |
| 20260505231803 | 29 | 212 | 2.0 | 5.0 | 0.00 | 0.00 | 0.00 | 11 | 992.8 |
| 20260505231744 | 29 | 210 | 2.0 | 5.0 | 0.00 | 0.00 | 0.00 | 11 | 992.9 |
| 20260505231246 | 29 | 216 | 2.0 | 5.0 | 0.00 | 0.00 | 0.00 | 11 | 992.8 |
| 20260505230903 | 29 | 217 | 2.0 | 5.0 | 0.00 | 0.00 | 0.00 | 11 | 992.9 |
| 20260505230248 | 29 | 207 | 2.0 | 5.0 | 0.00 | 0.00 | 0.00 | 11 | 992.8 |
| 20260505230003 | 29 | 198 | 2.0 | 5.0 | 0.00 | 0.00 | 0.00 | 11 | 992.7 |
| 20260505225745 | 29 | 204 | 2.0 | 5.0 | 0.00 | 0.00 | 0.00 | 11 | 992.9 |
| 20260505225403 | 29 | 195 | 2.0 | 5.0 | 0.00 | 0.00 | 0.00 | 11 | 992.9 |
| 20260505225245 | 29 | 202 | 2.0 | 4.0 | 0.00 | 0.00 | 0.00 | 11 | 992.9 |
| 20260505224503 | 29 | 215 | 1.0 | 3.0 | 0.00 | 0.00 | 0.00 | 11 | 992.9 |
| 20260505224244 | 29 | 214 | 1.0 | 3.0 | 0.00 | 0.00 | 0.00 | 11 | 992.8 |
| 20260505223744 | 29 | 210 | 1.0 | 3.0 | 0.00 | 0.00 | 0.00 | 11 | 992.9 |
| 20260505223603 | 29 | 215 | 2.0 | 3.0 | 0.00 | 0.00 | 0.00 | 11 | 993.0 |
| 20260505223244 | 29 | 217 | 1.0 | 3.0 | 0.00 | 0.00 | 0.00 | 11 | 992.9 |
| 20260505222723 | 29 | 234 | 1.0 | 3.0 | 0.00 | 0.00 | 0.00 | 11 | 993.1 |
| 20260505222703 | 29 | 234 | 1.0 | 3.0 | 0.00 | 0.00 | 0.00 | 11 | 993.1 |
| 20260505221803 | 29 | 238 | 0.0 | 3.0 | 0.00 | 0.00 | 0.00 | 11 | 993.1 |
| 20260505221746 | 29 | 235 | 0.0 | 3.0 | 0.00 | 0.00 | 0.00 | 11 | 993.0 |
| 20260505220903 | 29 | 217 | 0.0 | 3.0 | 0.00 | 0.00 | 0.00 | 11 | 992.9 |
| 20260505220003 | 30 | 210 | 1.0 | 4.0 | 0.00 | 0.00 | 0.00 | 11 | 993.0 |
| 20260505215403 | 30 | 225 | 2.0 | 4.0 | 0.00 | 0.00 | 0.00 | 11 | 992.9 |
| 20260505214723 | 30 | 223 | 2.0 | 4.0 | 0.00 | 0.00 | 0.00 | 11 | 992.9 |
| 20260505214503 | 30 | 227 | 1.0 | 4.0 | 0.00 | 0.00 | 0.00 | 11 | 992.9 |
| 20260505214247 | 30 | 222 | 2.0 | 5.0 | 0.00 | 0.00 | 0.00 | 11 | 993.1 |
| 20260505213603 | 30 | 217 | 2.0 | 5.0 | 0.00 | 0.00 | 0.00 | 11 | 992.8 |
| 20260505213245 | 30 | 213 | 2.0 | 4.0 | 0.00 | 0.00 | 0.00 | 11 | 993.1 |
| 20260505212703 | 30 | 218 | 2.0 | 6.0 | 0.00 | 0.00 | 0.00 | 11 | 992.9 |
| 20260505211803 | 31 | 215 | 2.0 | 7.0 | 0.00 | 0.00 | 0.00 | 11 | 992.8 |
| 20260505211245 | 31 | 208 | 2.0 | 7.0 | 0.00 | 0.00 | 0.00 | 11 | 992.8 |
| 20260505210903 | 32 | 201 | 4.0 | 7.0 | 0.00 | 0.00 | 0.00 | 11 | 992.8 |
| 20260505210722 | 32 | 198 | 2.0 | 5.0 | 0.00 | 0.00 | 0.00 | 11 | 992.8 |
| 20260505210248 | 32 | 215 | 2.0 | 5.0 | 0.00 | 0.00 | 0.00 | 11 | 992.7 |
| 20260505210003 | 32 | 221 | 2.0 | 5.0 | 0.00 | 0.00 | 0.00 | 11 | 992.7 |
| 20260505205403 | 32 | 233 | 2.0 | 5.0 | 0.00 | 0.00 | 0.00 | 11 | 992.7 |
| 20260505205245 | 32 | 222 | 2.0 | 5.0 | 0.00 | 0.00 | 0.00 | 11 | 992.7 |
| 20260505204606 | 32 | 229 | 1.0 | 6.0 | 0.00 | 0.00 | 0.00 | 11 | 992.6 |
| 20260505204503 | 32 | 231 | 2.0 | 6.0 | 0.00 | 0.00 | 0.00 | 11 | 992.6 |
| 20260505203606 | 33 | 247 | 2.0 | 5.0 | 0.00 | 0.00 | 0.00 | 11 | 992.6 |
| 20260505203603 | 33 | 251 | 2.0 | 5.0 | 0.00 | 0.00 | 0.00 | 11 | 992.6 |
| 20260505202703 | 33 | 222 | 2.0 | 8.0 | 0.00 | 0.00 | 0.00 | 11 | 992.6 |
| 20260505202606 | 33 | 226 | 2.0 | 8.0 | 0.00 | 0.00 | 0.00 | 11 | 992.5 |
| 20260505201803 | 33 | 242 | 2.0 | 8.0 | 0.00 | 0.00 | 0.00 | 11 | 992.5 |
| 20260505200903 | 34 | 258 | 1.0 | 4.0 | 0.00 | 0.00 | 0.00 | 11 | 992.4 |
| 20260505200716 | 34 | 255 | 2.0 | 4.0 | 0.00 | 0.00 | 0.00 | 11 | 992.4 |
| 20260505200606 | 34 | 256 | 1.0 | 4.0 | 0.00 | 0.00 | 0.00 | 11 | 992.6 |
| 20260505200003 | 34 | 229 | 1.0 | 4.0 | 0.00 | 0.00 | 0.00 | 11 | 992.5 |
| 20260505195606 | 34 | 235 | 1.0 | 6.0 | 0.00 | 0.00 | 0.00 | 11 | 992.4 |
| 20260505195403 | 34 | 239 | 0.0 | 8.0 | 0.00 | 0.00 | 0.00 | 11 | 992.4 |
| 20260505195106 | 35 | 243 | 1.0 | 8.0 | 0.00 | 0.00 | 0.00 | 11 | 992.3 |
| 20260505194606 | 35 | 241 | 2.0 | 8.0 | 0.00 | 0.00 | 0.00 | 11 | 992.3 |
| 20260505194503 | 35 | 243 | 2.0 | 8.0 | 0.00 | 0.00 | 0.00 | 11 | 992.4 |
| 20260505194112 | 35 | 244 | 3.0 | 8.0 | 0.00 | 0.00 | 0.00 | 11 | 992.2 |
| 20260505193609 | 35 | 236 | 2.0 | 5.0 | 0.00 | 0.00 | 0.00 | 11 | 992.3 |
| 20260505193603 | 35 | 240 | 3.0 | 7.0 | 0.00 | 0.00 | 0.00 | 11 | 992.3 |
| 20260505193106 | 35 | 251 | 2.0 | 4.0 | 0.00 | 0.00 | 0.00 | 11 | 992.3 |
| 20260505192712 | 36 | 289 | 2.0 | 8.0 | 0.00 | 0.00 | 0.00 | 11 | 992.3 |
| 20260505192703 | 36 | 289 | 2.0 | 8.0 | 0.00 | 0.00 | 0.00 | 11 | 992.3 |
| 20260505192612 | 36 | 298 | 1.0 | 8.0 | 0.00 | 0.00 | 0.00 | 11 | 992.2 |
| 20260505192110 | 36 | 273 | 2.0 | 8.0 | 0.00 | 0.00 | 0.00 | 11 | 992.3 |
| 20260505191803 | 36 | 269 | 4.0 | 8.0 | 0.00 | 0.00 | 0.00 | 11 | 992.3 |
| 20260505191108 | 36 | 283 | 1.0 | 8.0 | 0.00 | 0.00 | 0.00 | 11 | 992.3 |
| 20260505190903 | 36 | 283 | 2.0 | 8.0 | 0.00 | 0.00 | 0.00 | 11 | 992.2 |
| 20260505190714 | 36 | 297 | 3.0 | 7.0 | 0.00 | 0.00 | 0.00 | 11 | 992.2 |
| 20260505190609 | 36 | 293 | 5.0 | 7.0 | 0.00 | 0.00 | 0.00 | 11 | 992.2 |
| 20260505190004 | 36 | 317 | 2.0 | 10.0 | 0.00 | 0.00 | 0.00 | 11 | 992.1 |
| 20260505185403 | 36 | 311 | 4.0 | 10.0 | 0.00 | 0.00 | 0.00 | 11 | 992.1 |
| 20260505185107 | 36 | 307 | 3.0 | 8.0 | 0.00 | 0.00 | 0.00 | 11 | 992.2 |
| 20260505184503 | 36 | 319 | 4.0 | 9.0 | 0.00 | 0.00 | 0.00 | 11 | 992.1 |
| 20260505183608 | 37 | 335 | 4.0 | 8.0 | 0.00 | 0.00 | 0.00 | 11 | 991.9 |
| 20260505183603 | 37 | 335 | 4.0 | 8.0 | 0.00 | 0.00 | 0.00 | 11 | 991.9 |
| 20260505182713 | 37 | 329 | 2.0 | 9.0 | 0.00 | 0.00 | 0.00 | 11 | 991.9 |
| 20260505182704 | 37 | 329 | 2.0 | 10.0 | 0.00 | 0.00 | 0.00 | 11 | 991.9 |
| 20260505181803 | 38 | 305 | 2.0 | 10.0 | 0.00 | 0.00 | 0.00 | 11 | 991.9 |
| 20260505181607 | 38 | 305 | 4.0 | 10.0 | 0.00 | 0.00 | 0.00 | 11 | 991.9 |
| 20260505181107 | 40 | 327 | 4.0 | 10.0 | 0.00 | 0.00 | 0.00 | 11 | 991.8 |
| 20260505180903 | 40 | 338 | 4.0 | 10.0 | 0.00 | 0.00 | 0.00 | 11 | 992.0 |
| 20260505180109 | 40 | 326 | 5.0 | 14.0 | 0.00 | 0.00 | 0.00 | 11 | 991.8 |
| 20260505180004 | 40 | 327 | 5.0 | 14.0 | 0.00 | 0.00 | 0.00 | 11 | 991.9 |
| 20260505175607 | 40 | 336 | 7.0 | 14.0 | 0.00 | 0.00 | 0.00 | 11 | 991.8 |
| 20260505175403 | 40 | 336 | 7.0 | 13.0 | 0.00 | 0.00 | 0.00 | 11 | 991.7 |
| 20260505175110 | 40 | 341 | 5.0 | 13.0 | 0.00 | 0.00 | 0.00 | 11 | 991.8 |
| 20260505174713 | 39 | 326 | 5.0 | 15.0 | 0.00 | 0.00 | 0.00 | 11 | 991.6 |
| 20260505174609 | 39 | 325 | 4.0 | 15.0 | 0.00 | 0.00 | 0.00 | 11 | 991.7 |
| 20260505174503 | 39 | 331 | 5.0 | 15.0 | 0.00 | 0.00 | 0.00 | 11 | 991.8 |
| 20260505174107 | 39 | 331 | 5.0 | 15.0 | 0.00 | 0.00 | 0.00 | 11 | 991.7 |
| 20260505173607 | 39 | 339 | 4.0 | 13.0 | 0.00 | 0.00 | 0.00 | 11 | 991.7 |
| 20260505173603 | 39 | 339 | 4.0 | 13.0 | 0.00 | 0.00 | 0.00 | 11 | 991.7 |
| 20260505173107 | 39 | 348 | 3.0 | 13.0 | 0.00 | 0.00 | 0.00 | 11 | 991.8 |
| 20260505172712 | 40 | 355 | 4.0 | 19.0 | 0.00 | 0.00 | 0.00 | 11 | 991.7 |
| 20260505172703 | 40 | 355 | 4.0 | 19.0 | 0.00 | 0.00 | 0.00 | 11 | 991.7 |
| 20260505172608 | 40 | 355 | 7.0 | 19.0 | 0.00 | 0.00 | 0.00 | 11 | 991.6 |
| 20260505171803 | 38 | 330 | 7.0 | 19.0 | 0.00 | 0.00 | 0.00 | 11 | 991.7 |
| 20260505171612 | 39 | 318 | 5.0 | 17.0 | 0.00 | 0.00 | 0.00 | 11 | 991.5 |
| 20260505171108 | 40 | 296 | 5.0 | 17.0 | 0.00 | 0.00 | 0.00 | 11 | 991.5 |
| 20260505170903 | 41 | 290 | 5.0 | 17.0 | 0.00 | 0.00 | 0.00 | 11 | 991.7 |
| 20260505170712 | 41 | 292 | 11.0 | 17.0 | 0.00 | 0.00 | 0.00 | 11 | 991.4 |
| 20260505170613 | 42 | 287 | 8.0 | 17.0 | 0.00 | 0.00 | 0.00 | 11 | 991.6 |
| 20260505170108 | 40 | 290 | 7.0 | 17.0 | 0.00 | 0.00 | 0.00 | 11 | 991.4 |
| 20260505170003 | 40 | 302 | 7.0 | 17.0 | 0.00 | 0.00 | 0.00 | 11 | 991.4 |
| 20260505165608 | 38 | 318 | 5.0 | 14.0 | 0.00 | 0.00 | 0.00 | 11 | 991.4 |
| 20260505165403 | 38 | 319 | 5.0 | 14.0 | 0.00 | 0.00 | 0.00 | 11 | 991.4 |
| 20260505165109 | 39 | 316 | 5.0 | 14.0 | 0.00 | 0.00 | 0.00 | 11 | 991.4 |
| 20260505164503 | 40 | 291 | 7.0 | 13.0 | 0.00 | 0.00 | 0.00 | 11 | 991.5 |
| 20260505163603 | 40 | 302 | 5.0 | 15.0 | 0.00 | 0.00 | 0.00 | 11 | 991.4 |
| 20260505162712 | 42 | 299 | 6.0 | 20.0 | 0.00 | 0.00 | 0.00 | 11 | 991.4 |
| 20260505162703 | 42 | 301 | 6.0 | 20.0 | 0.00 | 0.00 | 0.00 | 11 | 991.4 |
| 20260505162608 | 41 | 310 | 5.0 | 20.0 | 0.00 | 0.00 | 0.00 | 11 | 991.3 |
| 20260505161803 | 40 | 294 | 9.0 | 20.0 | 0.00 | 0.00 | 0.00 | 11 | 991.4 |
| 20260505161608 | 40 | 296 | 5.0 | 15.0 | 0.00 | 0.00 | 0.00 | 11 | 991.4 |
| 20260505160903 | 41 | 324 | 4.0 | 18.0 | 0.00 | 0.00 | 0.00 | 11 | 991.3 |
| 20260505160608 | 42 | 334 | 6.0 | 18.0 | 0.00 | 0.00 | 0.00 | 11 | 991.3 |
| 20260505160113 | 42 | 356 | 9.0 | 16.0 | 0.00 | 0.00 | 0.00 | 11 | 991.2 |
| 20260505153107 | 42 | 342 | 7.0 | 19.0 | 0.00 | 0.00 | 0.00 | 11 | 991.1 |
| 20260505152703 | 42 | 338 | 5.0 | 17.0 | 0.00 | 0.00 | 0.00 | 11 | 990.9 |
| 20260505152607 | 42 | 333 | 7.0 | 17.0 | 0.00 | 0.00 | 0.00 | 11 | 991.0 |
| 20260505151804 | 39 | 292 | 5.0 | 15.0 | 0.00 | 0.00 | 0.00 | 11 | 990.9 |
| 20260505151607 | 40 | 310 | 6.0 | 15.0 | 0.00 | 0.00 | 0.00 | 11 | 990.9 |
| 20260505151110 | 40 | 330 | 7.0 | 15.0 | 0.00 | 0.00 | 0.00 | 11 | 990.9 |
| 20260505150903 | 41 | 329 | 6.0 | 11.0 | 0.00 | 0.00 | 0.00 | 11 | 990.9 |
| 20260505140607 | 39 | 355 | 4.0 | 12.0 | 0.00 | 0.00 | 0.00 | 11 | 990.5 |
| 20260505140107 | 39 | 337 | 5.0 | 12.0 | 0.00 | 0.00 | 0.00 | 11 | 990.4 |
| 20260505130110 | 43 | 283 | 9.0 | 15.0 | 0.00 | 0.00 | 0.00 | 11 | 990.3 |
| 20260505124503 | 42 | 342 | 8.0 | 19.0 | 0.00 | 0.00 | 0.00 | 11 | 990.1 |
| 20260505124110 | 42 | 329 | 7.0 | 19.0 | 0.00 | 0.00 | 0.00 | 11 | 990.2 |
| 20260505123608 | 40 | 310 | 7.0 | 15.0 | 0.00 | 0.00 | 0.00 | 11 | 990.1 |
| 20260505123603 | 40 | 310 | 7.0 | 15.0 | 0.00 | 0.00 | 0.00 | 11 | 990.1 |
| 20260505122715 | 39 | 310 | 8.0 | 19.0 | 0.00 | 0.00 | 0.00 | 11 | 990.1 |
| 20260505122703 | 39 | 310 | 8.0 | 19.0 | 0.00 | 0.00 | 0.00 | 11 | 990.1 |
| 20260505121803 | 39 | 339 | 10.0 | 19.0 | 0.00 | 0.00 | 0.00 | 11 | 990.0 |
| 20260505120903 | 38 | 305 | 4.0 | 22.0 | 0.00 | 0.00 | 0.00 | 11 | 990.0 |
| 20260505120607 | 39 | 306 | 7.0 | 22.0 | 0.00 | 0.00 | 0.00 | 11 | 989.9 |
| 20260505120004 | 41 | 331 | 14.0 | 22.0 | 0.00 | 0.00 | 0.00 | 11 | 989.8 |
| 20260505115403 | 40 | 323 | 8.0 | 17.0 | 0.00 | 0.00 | 0.00 | 11 | 989.8 |
| 20260505115106 | 41 | 308 | 9.0 | 17.0 | 0.00 | 0.00 | 0.00 | 11 | 989.8 |
| 20260505114503 | 40 | 323 | 5.0 | 17.0 | 0.00 | 0.00 | 0.00 | 11 | 989.6 |
| 20260505113606 | 41 | 293 | 7.0 | 17.0 | 0.00 | 0.00 | 0.00 | 11 | 989.8 |
| 20260505113603 | 41 | 288 | 8.0 | 17.0 | 0.00 | 0.00 | 0.00 | 11 | 989.7 |
| 20260505112703 | 40 | 307 | 9.0 | 17.0 | 0.00 | 0.00 | 0.00 | 11 | 989.6 |
| 20260505112606 | 40 | 315 | 6.0 | 17.0 | 0.00 | 0.00 | 0.00 | 11 | 989.6 |
| 20260505112106 | 39 | 306 | 8.0 | 16.0 | 0.00 | 0.00 | 0.00 | 11 | 989.6 |
| 20260505111803 | 39 | 314 | 7.0 | 16.0 | 0.00 | 0.00 | 0.00 | 11 | 989.8 |
| 20260505111606 | 40 | 322 | 8.0 | 16.0 | 0.00 | 0.00 | 0.00 | 11 | 989.6 |
| 20260505110903 | 39 | 354 | 8.0 | 19.0 | 0.00 | 0.00 | 0.00 | 11 | 989.5 |
| 20260505110713 | 39 | 356 | 8.0 | 19.0 | 0.00 | 0.00 | 0.00 | 11 | 989.5 |
| 20260505110606 | 40 | 355 | 8.0 | 19.0 | 0.00 | 0.00 | 0.00 | 11 | 989.7 |
| 20260505102106 | 40 | 343 | 7.0 | 17.0 | 0.00 | 0.00 | 0.00 | 11 | 989.3 |
| 20260505101803 | 40 | 340 | 11.0 | 17.0 | 0.00 | 0.00 | 0.00 | 11 | 989.2 |
| 20260505101607 | 40 | 333 | 8.0 | 19.0 | 0.00 | 0.00 | 0.00 | 11 | 989.2 |
| 20260505101108 | 40 | 324 | 8.0 | 19.0 | 0.00 | 0.00 | 0.00 | 11 | 989.2 |
| 20260505100903 | 39 | 319 | 5.0 | 19.0 | 0.00 | 0.00 | 0.00 | 11 | 989.1 |
| 20260505100715 | 39 | 316 | 10.0 | 19.0 | 0.00 | 0.00 | 0.00 | 11 | 989.1 |
| 20260505100003 | 41 | 292 | 5.0 | 17.0 | 0.00 | 0.00 | 0.00 | 11 | 988.9 |
| 20260505095951 | 41 | 288 | 5.0 | 17.0 | 0.00 | 0.00 | 0.00 | 11 | 989.0 |
| 20260505095451 | 41 | 265 | 10.0 | 17.0 | 0.00 | 0.00 | 0.00 | 11 | 989.0 |
| 20260505095403 | 41 | 265 | 10.0 | 17.0 | 0.00 | 0.00 | 0.00 | 11 | 989.0 |
| 20260505094951 | 41 | 303 | 5.0 | 17.0 | 0.00 | 0.00 | 0.00 | 11 | 989.1 |
| 20260505094711 | 41 | 307 | 10.0 | 16.0 | 0.00 | 0.00 | 0.00 | 11 | 989.0 |
| 20260505094503 | 41 | 317 | 7.0 | 16.0 | 0.00 | 0.00 | 0.00 | 11 | 988.9 |
| 20260505094451 | 40 | 320 | 8.0 | 16.0 | 0.00 | 0.00 | 0.00 | 11 | 989.2 |
| 20260505093951 | 40 | 323 | 6.0 | 21.0 | 0.00 | 0.00 | 0.00 | 11 | 989.2 |
| 20260505093603 | 40 | 328 | 7.0 | 21.0 | 0.00 | 0.00 | 0.00 | 11 | 989.2 |
| 20260505093451 | 40 | 330 | 6.0 | 21.0 | 0.00 | 0.00 | 0.00 | 11 | 989.1 |
| 20260505092951 | 39 | 339 | 11.0 | 17.0 | 0.00 | 0.00 | 0.00 | 11 | 988.9 |
| 20260505092711 | 39 | 344 | 9.0 | 16.0 | 0.00 | 0.00 | 0.00 | 11 | 989.0 |
| 20260505092703 | 39 | 344 | 9.0 | 16.0 | 0.00 | 0.00 | 0.00 | 11 | 989.0 |
| 20260505092451 | 40 | 343 | 11.0 | 16.0 | 0.00 | 0.00 | 0.00 | 11 | 989.0 |
| 20260505091951 | 40 | 329 | 8.0 | 21.0 | 0.00 | 0.00 | 0.00 | 11 | 988.9 |
| 20260505091803 | 40 | 329 | 6.0 | 21.0 | 0.00 | 0.00 | 0.00 | 11 | 988.9 |
| 20260505091451 | 40 | 327 | 7.0 | 21.0 | 0.00 | 0.00 | 0.00 | 11 | 989.0 |
| 20260505090951 | 40 | 333 | 9.0 | 18.0 | 0.00 | 0.00 | 0.00 | 11 | 988.9 |
| 20260505090903 | 40 | 333 | 9.0 | 18.0 | 0.00 | 0.00 | 0.00 | 11 | 988.9 |
| 20260505090711 | 39 | 334 | 8.0 | 18.0 | 0.00 | 0.00 | 0.00 | 11 | 989.0 |
| 20260505090451 | 39 | 332 | 10.0 | 18.0 | 0.00 | 0.00 | 0.00 | 11 | 988.9 |
| 20260505090003 | 39 | 339 | 10.0 | 23.0 | 0.00 | 0.00 | 0.00 | 11 | 989.0 |
| 20260505085951 | 39 | 340 | 11.0 | 23.0 | 0.00 | 0.00 | 0.00 | 11 | 989.0 |
| 20260505085451 | 38 | 341 | 8.0 | 23.0 | 0.00 | 0.00 | 0.00 | 11 | 988.9 |
| 20260505085403 | 38 | 341 | 8.0 | 23.0 | 0.00 | 0.00 | 0.00 | 11 | 988.9 |
| 20260505084951 | 38 | 344 | 12.0 | 22.0 | 0.00 | 0.00 | 0.00 | 11 | 988.8 |
| 20260505084711 | 38 | 340 | 8.0 | 22.0 | 0.00 | 0.00 | 0.00 | 11 | 989.0 |
| 20260505084503 | 38 | 340 | 12.0 | 22.0 | 0.00 | 0.00 | 0.00 | 11 | 988.8 |
| 20260505084451 | 39 | 342 | 12.0 | 21.0 | 0.00 | 0.00 | 0.00 | 11 | 988.9 |
| 20260505083951 | 38 | 327 | 12.0 | 21.0 | 0.00 | 0.00 | 0.00 | 11 | 988.9 |
| 20260505083603 | 39 | 334 | 8.0 | 17.0 | 0.00 | 0.00 | 0.00 | 11 | 988.7 |
| 20260505083451 | 39 | 334 | 11.0 | 18.0 | 0.00 | 0.00 | 0.00 | 11 | 988.8 |
| 20260505082951 | 38 | 338 | 8.0 | 18.0 | 0.00 | 0.00 | 0.00 | 11 | 988.7 |
| 20260505082712 | 38 | 332 | 8.0 | 21.0 | 0.00 | 0.00 | 0.00 | 11 | 988.6 |
| 20260505082703 | 38 | 332 | 8.0 | 21.0 | 0.00 | 0.00 | 0.00 | 11 | 988.6 |
| 20260505082338 | 38 | 327 | 7.0 | 21.0 | 0.00 | 0.00 | 0.00 | 11 | 988.5 |
| 20260505081838 | 38 | 326 | 8.0 | 21.0 | 0.00 | 0.00 | 0.00 | 11 | 988.7 |
| 20260505081804 | 38 | 326 | 8.0 | 21.0 | 0.00 | 0.00 | 0.00 | 11 | 988.7 |
| 20260505081338 | 38 | 330 | 5.0 | 21.0 | 0.00 | 0.00 | 0.00 | 11 | 988.5 |
| 20260505080903 | 38 | 328 | 7.0 | 21.0 | 0.00 | 0.00 | 0.00 | 11 | 988.7 |
| 20260505080838 | 38 | 330 | 11.0 | 21.0 | 0.00 | 0.00 | 0.00 | 11 | 988.5 |
| 20260505080712 | 38 | 327 | 10.0 | 21.0 | 0.00 | 0.00 | 0.00 | 11 | 988.6 |
| 20260505080338 | 37 | 317 | 8.0 | 17.0 | 0.00 | 0.00 | 0.00 | 11 | 988.6 |
| 20260505080003 | 37 | 327 | 8.0 | 17.0 | 0.00 | 0.00 | 0.00 | 11 | 988.6 |
| 20260505075838 | 37 | 331 | 8.0 | 17.0 | 0.00 | 0.00 | 0.00 | 11 | 988.6 |
| 20260505075403 | 37 | 342 | 8.0 | 17.0 | 0.00 | 0.00 | 0.00 | 11 | 988.5 |
| 20260505075338 | 37 | 341 | 6.0 | 17.0 | 0.00 | 0.00 | 0.00 | 11 | 988.5 |
| 20260505074838 | 37 | 339 | 8.0 | 17.0 | 0.00 | 0.00 | 0.00 | 11 | 988.4 |
| 20260505074712 | 37 | 340 | 11.0 | 17.0 | 0.00 | 0.00 | 0.00 | 11 | 988.4 |
| 20260505074503 | 37 | 345 | 10.0 | 18.0 | 0.00 | 0.00 | 0.00 | 11 | 988.6 |
| 20260505074338 | 37 | 349 | 8.0 | 18.0 | 0.00 | 0.00 | 0.00 | 11 | 988.6 |
| 20260505073838 | 36 | 348 | 9.0 | 18.0 | 0.00 | 0.00 | 0.00 | 11 | 988.6 |
| 20260505073603 | 37 | 343 | 11.0 | 18.0 | 0.00 | 0.00 | 0.00 | 11 | 988.6 |
| 20260505073338 | 37 | 345 | 6.0 | 17.0 | 0.00 | 0.00 | 0.00 | 11 | 988.5 |
| 20260505072838 | 37 | 352 | 6.0 | 19.0 | 0.00 | 0.00 | 0.00 | 11 | 988.6 |
| 20260505072712 | 37 | 348 | 6.0 | 19.0 | 0.00 | 0.00 | 0.00 | 11 | 988.6 |
| 20260505072703 | 37 | 348 | 6.0 | 19.0 | 0.00 | 0.00 | 0.00 | 11 | 988.6 |
| 20260505072338 | 36 | 349 | 5.0 | 19.0 | 0.00 | 0.00 | 0.00 | 11 | 988.6 |
| 20260505071838 | 36 | 334 | 12.0 | 19.0 | 0.00 | 0.00 | 0.00 | 11 | 988.4 |
| 20260505071803 | 36 | 334 | 12.0 | 19.0 | 0.00 | 0.00 | 0.00 | 11 | 988.4 |
| 20260505071338 | 37 | 327 | 8.0 | 16.0 | 0.00 | 0.00 | 0.00 | 11 | 988.4 |
| 20260505070903 | 36 | 321 | 8.0 | 17.0 | 0.00 | 0.00 | 0.00 | 11 | 988.4 |
| 20260505070838 | 36 | 326 | 6.0 | 17.0 | 0.00 | 0.00 | 0.00 | 11 | 988.4 |
| 20260505070712 | 36 | 326 | 7.0 | 17.0 | 0.00 | 0.00 | 0.00 | 11 | 988.5 |
| 20260505070338 | 36 | 315 | 8.0 | 17.0 | 0.00 | 0.00 | 0.00 | 11 | 988.5 |
| 20260505070004 | 36 | 316 | 5.0 | 17.0 | 0.00 | 0.00 | 0.00 | 11 | 988.3 |
| 20260505065838 | 36 | 317 | 5.0 | 17.0 | 0.00 | 0.00 | 0.00 | 11 | 988.5 |
| 20260505065403 | 36 | 339 | 8.0 | 17.0 | 0.00 | 0.00 | 0.00 | 11 | 988.3 |
| 20260505065338 | 36 | 345 | 7.0 | 17.0 | 0.00 | 0.00 | 0.00 | 11 | 988.3 |
| 20260505064838 | 36 | 360 | 6.0 | 17.0 | 0.00 | 0.00 | 0.00 | 11 | 988.3 |
| 20260505064712 | 36 | 356 | 7.0 | 17.0 | 0.00 | 0.00 | 0.00 | 11 | 988.2 |
| 20260505064503 | 36 | 346 | 6.0 | 17.0 | 0.00 | 0.00 | 0.00 | 11 | 988.2 |
| 20260505064338 | 35 | 337 | 8.0 | 17.0 | 0.00 | 0.00 | 0.00 | 11 | 988.2 |
| 20260505063838 | 35 | 307 | 9.0 | 21.0 | 0.00 | 0.00 | 0.00 | 11 | 988.2 |
| 20260505063603 | 35 | 317 | 7.0 | 21.0 | 0.00 | 0.00 | 0.00 | 11 | 988.3 |
| 20260505063338 | 35 | 322 | 8.0 | 21.0 | 0.00 | 0.00 | 0.00 | 11 | 988.1 |
| 20260505062837 | 35 | 327 | 8.0 | 16.0 | 0.00 | 0.00 | 0.00 | 11 | 988.2 |
| 20260505062711 | 35 | 323 | 8.0 | 16.0 | 0.00 | 0.00 | 0.00 | 11 | 988.1 |
| 20260505062703 | 35 | 323 | 8.0 | 16.0 | 0.00 | 0.00 | 0.00 | 11 | 988.1 |
| 20260505062337 | 35 | 326 | 5.0 | 15.0 | 0.00 | 0.00 | 0.00 | 11 | 988.1 |
| 20260505061837 | 35 | 313 | 5.0 | 19.0 | 0.00 | 0.00 | 0.00 | 11 | 988.1 |
| 20260505061803 | 35 | 313 | 5.0 | 19.0 | 0.00 | 0.00 | 0.00 | 11 | 988.1 |
| 20260505061337 | 35 | 308 | 6.0 | 19.0 | 0.00 | 0.00 | 0.00 | 11 | 987.9 |
| 20260505060903 | 35 | 316 | 11.0 | 17.0 | 0.00 | 0.00 | 0.00 | 11 | 988.1 |
| 20260505060837 | 35 | 322 | 10.0 | 17.0 | 0.00 | 0.00 | 0.00 | 11 | 988.2 |
| 20260505060711 | 35 | 316 | 7.0 | 17.0 | 0.00 | 0.00 | 0.00 | 11 | 988.1 |
| 20260505060337 | 35 | 315 | 8.0 | 18.0 | 0.00 | 0.00 | 0.00 | 11 | 988.0 |
| 20260505060003 | 35 | 297 | 8.0 | 18.0 | 0.00 | 0.00 | 0.00 | 11 | 988.1 |
| 20260505055837 | 35 | 294 | 8.0 | 18.0 | 0.00 | 0.00 | 0.00 | 11 | 988.1 |
| 20260505055403 | 35 | 292 | 9.0 | 18.0 | 0.00 | 0.00 | 0.00 | 11 | 988.1 |
| 20260505055337 | 35 | 294 | 7.0 | 17.0 | 0.00 | 0.00 | 0.00 | 11 | 988.1 |
| 20260505054837 | 34 | 310 | 8.0 | 14.0 | 0.00 | 0.00 | 0.00 | 11 | 987.9 |
| 20260505054711 | 35 | 310 | 6.0 | 13.0 | 0.00 | 0.00 | 0.00 | 11 | 988.0 |
| 20260505054503 | 34 | 310 | 4.0 | 13.0 | 0.00 | 0.00 | 0.00 | 11 | 988.0 |
| 20260505054337 | 34 | 307 | 4.0 | 13.0 | 0.00 | 0.00 | 0.00 | 11 | 988.0 |
| 20260505053837 | 34 | 307 | 6.0 | 13.0 | 0.00 | 0.00 | 0.00 | 11 | 988.0 |
| 20260505053603 | 34 | 301 | 8.0 | 16.0 | 0.00 | 0.00 | 0.00 | 11 | 987.9 |
| 20260505053337 | 34 | 295 | 4.0 | 16.0 | 0.00 | 0.00 | 0.00 | 11 | 987.9 |
| 20260505052837 | 33 | 298 | 5.0 | 16.0 | 0.00 | 0.00 | 0.00 | 11 | 988.0 |
| 20260505052713 | 33 | 299 | 8.0 | 16.0 | 0.00 | 0.00 | 0.00 | 11 | 987.9 |
| 20260505052703 | 33 | 299 | 8.0 | 16.0 | 0.00 | 0.00 | 0.00 | 11 | 987.9 |
| 20260505052339 | 33 | 313 | 9.0 | 17.0 | 0.00 | 0.00 | 0.00 | 11 | 987.9 |
| 20260505051837 | 33 | 312 | 6.0 | 17.0 | 0.00 | 0.00 | 0.00 | 11 | 987.9 |
| 20260505051803 | 33 | 312 | 6.0 | 17.0 | 0.00 | 0.00 | 0.00 | 11 | 987.9 |
| 20260505051337 | 33 | 309 | 6.0 | 15.0 | 0.00 | 0.00 | 0.00 | 11 | 987.9 |
| 20260505050903 | 33 | 323 | 6.0 | 17.0 | 0.00 | 0.00 | 0.00 | 11 | 987.8 |
| 20260505050839 | 33 | 326 | 6.0 | 17.0 | 0.00 | 0.00 | 0.00 | 11 | 987.7 |
| 20260505050713 | 33 | 324 | 5.0 | 17.0 | 0.00 | 0.00 | 0.00 | 11 | 987.7 |
| 20260505050339 | 33 | 322 | 6.0 | 17.0 | 0.00 | 0.00 | 0.00 | 11 | 987.8 |
| 20260505041339 | 32 | 301 | 5.0 | 14.0 | 0.00 | 0.00 | 0.00 | 11 | 987.5 |
| 20260505040903 | 32 | 309 | 4.0 | 14.0 | 0.00 | 0.00 | 0.00 | 11 | 987.5 |
| 20260505040839 | 32 | 307 | 4.0 | 14.0 | 0.00 | 0.00 | 0.00 | 11 | 987.6 |
| 20260505040713 | 32 | 307 | 5.0 | 14.0 | 0.00 | 0.00 | 0.00 | 11 | 987.5 |
| 20260505040339 | 32 | 311 | 4.0 | 14.0 | 0.00 | 0.00 | 0.00 | 11 | 987.5 |
| 20260505040003 | 32 | 317 | 2.0 | 13.0 | 0.00 | 0.00 | 0.00 | 11 | 987.5 |
| 20260505035839 | 32 | 316 | 6.0 | 13.0 | 0.00 | 0.00 | 0.00 | 11 | 987.4 |
| 20260505035403 | 32 | 314 | 9.0 | 12.0 | 0.00 | 0.00 | 0.00 | 11 | 987.5 |
| 20260505035339 | 32 | 311 | 6.0 | 11.0 | 0.00 | 0.00 | 0.00 | 11 | 987.5 |
| 20260505034839 | 31 | 298 | 8.0 | 11.0 | 0.00 | 0.00 | 0.00 | 11 | 987.5 |
| 20260505034713 | 31 | 299 | 6.0 | 13.0 | 0.00 | 0.00 | 0.00 | 11 | 987.6 |
| 20260505034503 | 31 | 302 | 4.0 | 15.0 | 0.00 | 0.00 | 0.00 | 11 | 987.6 |
| 20260505034339 | 31 | 313 | 4.0 | 15.0 | 0.00 | 0.00 | 0.00 | 11 | 987.5 |
| 20260505033929 | 31 | 305 | 6.0 | 15.0 | 0.00 | 0.00 | 0.00 | 11 | 987.4 |
| 20260505033603 | 31 | 304 | 6.0 | 15.0 | 0.00 | 0.00 | 0.00 | 11 | 987.5 |
| 20260505033429 | 31 | 295 | 7.0 | 15.0 | 0.00 | 0.00 | 0.00 | 11 | 987.6 |
| 20260505032929 | 31 | 294 | 4.0 | 13.0 | 0.00 | 0.00 | 0.00 | 11 | 987.4 |
| 20260505032713 | 31 | 299 | 4.0 | 13.0 | 0.00 | 0.00 | 0.00 | 11 | 987.4 |
| 20260505032703 | 31 | 299 | 4.0 | 13.0 | 0.00 | 0.00 | 0.00 | 11 | 987.4 |
| 20260505032429 | 31 | 310 | 6.0 | 12.0 | 0.00 | 0.00 | 0.00 | 11 | 987.3 |
| 20260505031929 | 31 | 317 | 4.0 | 11.0 | 0.00 | 0.00 | 0.00 | 11 | 987.4 |
| 20260505031803 | 31 | 318 | 4.0 | 11.0 | 0.00 | 0.00 | 0.00 | 11 | 987.4 |
| 20260505031429 | 31 | 317 | 3.0 | 11.0 | 0.00 | 0.00 | 0.00 | 11 | 987.4 |
| 20260505030929 | 31 | 317 | 4.0 | 11.0 | 0.00 | 0.00 | 0.00 | 11 | 987.3 |
| 20260505030903 | 31 | 318 | 6.0 | 11.0 | 0.00 | 0.00 | 0.00 | 11 | 987.4 |
| 20260505030713 | 31 | 312 | 6.0 | 11.0 | 0.00 | 0.00 | 0.00 | 11 | 987.3 |
| 20260505030429 | 31 | 307 | 6.0 | 11.0 | 0.00 | 0.00 | 0.00 | 11 | 987.4 |
| 20260505030003 | 31 | 293 | 6.0 | 11.0 | 0.00 | 0.00 | 0.00 | 11 | 987.5 |
| 20260505025929 | 31 | 285 | 7.0 | 10.0 | 0.00 | 0.00 | 0.00 | 11 | 987.4 |
| 20260505025429 | 30 | 247 | 0.0 | 5.0 | 0.00 | 0.00 | 0.00 | 11 | 987.4 |
| 20260505025403 | 30 | 247 | 0.0 | 5.0 | 0.00 | 0.00 | 0.00 | 11 | 987.4 |
| 20260505024929 | 31 | 252 | 2.0 | 4.0 | 0.00 | 0.00 | 0.00 | 11 | 987.3 |
| 20260505024713 | 31 | 249 | 2.0 | 4.0 | 0.00 | 0.00 | 0.00 | 11 | 987.2 |
| 20260505024503 | 31 | 277 | 2.0 | 6.0 | 0.00 | 0.00 | 0.00 | 11 | 987.3 |
| 20260505024429 | 31 | 288 | 2.0 | 6.0 | 0.00 | 0.00 | 0.00 | 11 | 987.3 |
| 20260505023930 | 31 | 293 | 3.0 | 6.0 | 0.00 | 0.00 | 0.00 | 11 | 987.2 |
| 20260505023603 | 31 | 309 | 2.0 | 8.0 | 0.00 | 0.00 | 0.00 | 11 | 987.4 |
| 20260505023429 | 31 | 299 | 2.0 | 8.0 | 0.00 | 0.00 | 0.00 | 11 | 987.2 |
| 20260505022929 | 31 | 307 | 1.0 | 8.0 | 0.00 | 0.00 | 0.00 | 11 | 987.4 |
| 20260505022713 | 31 | 293 | 3.0 | 8.0 | 0.00 | 0.00 | 0.00 | 11 | 987.3 |
| 20260505022704 | 31 | 293 | 3.0 | 8.0 | 0.00 | 0.00 | 0.00 | 11 | 987.3 |
| 20260505022429 | 31 | 284 | 3.0 | 8.0 | 0.00 | 0.00 | 0.00 | 11 | 987.4 |
| 20260505021929 | 31 | 300 | 2.0 | 9.0 | 0.00 | 0.00 | 0.00 | 11 | 987.4 |
| 20260505021803 | 31 | 300 | 4.0 | 9.0 | 0.00 | 0.00 | 0.00 | 11 | 987.2 |
| 20260505021429 | 31 | 314 | 5.0 | 9.0 | 0.00 | 0.00 | 0.00 | 11 | 987.2 |
| 20260505020929 | 31 | 307 | 3.0 | 8.0 | 0.00 | 0.00 | 0.00 | 11 | 987.2 |
| 20260505020903 | 31 | 306 | 4.0 | 8.0 | 0.00 | 0.00 | 0.00 | 11 | 987.2 |
| 20260505020713 | 31 | 307 | 4.0 | 10.0 | 0.00 | 0.00 | 0.00 | 11 | 987.4 |
| 20260505020429 | 31 | 309 | 4.0 | 11.0 | 0.00 | 0.00 | 0.00 | 11 | 987.2 |
| 20260505020003 | 31 | 316 | 4.0 | 11.0 | 0.00 | 0.00 | 0.00 | 11 | 987.2 |
| 20260505015929 | 31 | 319 | 4.0 | 11.0 | 0.00 | 0.00 | 0.00 | 11 | 987.1 |
| 20260505015429 | 31 | 313 | 4.0 | 10.0 | 0.00 | 0.00 | 0.00 | 11 | 987.1 |
| 20260505015403 | 31 | 313 | 4.0 | 10.0 | 0.00 | 0.00 | 0.00 | 11 | 987.1 |
| 20260505014929 | 31 | 300 | 6.0 | 10.0 | 0.00 | 0.00 | 0.00 | 11 | 987.2 |
| 20260505014713 | 31 | 305 | 5.0 | 10.0 | 0.00 | 0.00 | 0.00 | 11 | 987.2 |
| 20260505014503 | 31 | 302 | 4.0 | 10.0 | 0.00 | 0.00 | 0.00 | 11 | 987.2 |
| 20260505014429 | 31 | 299 | 6.0 | 10.0 | 0.00 | 0.00 | 0.00 | 11 | 987.1 |
| 20260505013928 | 31 | 294 | 5.0 | 9.0 | 0.00 | 0.00 | 0.00 | 11 | 987.2 |
| 20260505013603 | 31 | 299 | 4.0 | 11.0 | 0.00 | 0.00 | 0.00 | 11 | 987.0 |
| 20260505013429 | 31 | 308 | 5.0 | 11.0 | 0.00 | 0.00 | 0.00 | 11 | 987.0 |
| 20260505012929 | 31 | 328 | 4.0 | 13.0 | 0.00 | 0.00 | 0.00 | 11 | 986.9 |
| 20260505012712 | 31 | 326 | 5.0 | 13.0 | 0.00 | 0.00 | 0.00 | 11 | 987.1 |
| 20260505012703 | 31 | 326 | 5.0 | 13.0 | 0.00 | 0.00 | 0.00 | 11 | 987.1 |
| 20260505012429 | 31 | 323 | 3.0 | 13.0 | 0.00 | 0.00 | 0.00 | 11 | 987.0 |
| 20260505011929 | 31 | 304 | 3.0 | 11.0 | 0.00 | 0.00 | 0.00 | 11 | 987.0 |
| 20260505011803 | 31 | 306 | 3.0 | 11.0 | 0.00 | 0.00 | 0.00 | 11 | 987.0 |
| 20260505011429 | 31 | 309 | 3.0 | 11.0 | 0.00 | 0.00 | 0.00 | 11 | 987.0 |
| 20260505010929 | 31 | 314 | 5.0 | 10.0 | 0.00 | 0.00 | 0.00 | 11 | 987.0 |
| 20260505010903 | 31 | 314 | 5.0 | 10.0 | 0.00 | 0.00 | 0.00 | 11 | 987.0 |
| 20260505010713 | 31 | 313 | 4.0 | 10.0 | 0.00 | 0.00 | 0.00 | 11 | 986.9 |
| 20260505010429 | 31 | 307 | 4.0 | 10.0 | 0.00 | 0.00 | 0.00 | 11 | 986.9 |
| 20260505010003 | 31 | 300 | 4.0 | 11.0 | 0.00 | 0.00 | 0.00 | 11 | 986.9 |
| 20260505005929 | 31 | 299 | 5.0 | 11.0 | 0.00 | 0.00 | 0.00 | 11 | 986.8 |
| 20260505005428 | 31 | 305 | 2.0 | 11.0 | 0.00 | 0.00 | 0.00 | 11 | 986.8 |
| 20260505005403 | 31 | 307 | 2.0 | 11.0 | 0.00 | 0.00 | 0.00 | 11 | 986.8 |
| 20260505004928 | 31 | 321 | 2.0 | 8.0 | 0.00 | 0.00 | 0.00 | 11 | 986.8 |
| 20260505004713 | 31 | 318 | 4.0 | 8.0 | 0.00 | 0.00 | 0.00 | 11 | 986.9 |